Location: Misciano
(43.5000°N, 11.9500°E)
Time: 08:45:49
(UTC+00:00)

MOS 1 - Pass Details

Date: 13 August 2020
Orbit: 879 x 890 km, 99.1° (Epoch: 20 September)

Event Time Altitude Azimuth Distance (km) Brightness Sun altitude
Rises 18:43:37 0° 157° (SSE) 3,464 6.9 -5.1°
Reaches altitude 10° 18:46:00 10° 155° (SSE) 2,531 6.2 -5.5°
Maximum altitude 18:51:35 71° 72° (ENE) 934 4.3 -6.4°
Drops below altitude 10° 18:57:14 10° 350° (N) 2,553 7.3 -7.3°
Sets 18:59:39 0° 348° (NNW) 3,498 8.0 -7.7°
